Location: Allaines
(49.9632°N, 2.9458°E)
Time: 08:04:04
(UTC+00:00)

STARLINK-1200 - Visible Passes

Search period start: 11 August 2020 00:00
Search period end: 21 August 2020 00:00
Orbit: 549 x 550 km, 53.0° (Epoch: 11 August)

Date Brightness Start Highest point End Pass type
(mag) Time Alt. Az. Time Alt. Az. Time Alt. Az.
11 Aug 4.1 19:42:13 10° W 19:46:22 65° NNW 19:50:29 10° ENE visible
11 Aug 4.1 21:22:10 10° WNW 21:26:17 59° N 21:29:02 20° E visible
11 Aug 4.5 23:01:51 10° WNW 23:04:40 40° W 23:04:40 40° W visible
12 Aug 4.0 21:16:42 10° WNW 21:20:50 63° NNE 21:23:18 23° E visible
12 Aug 4.8 22:56:23 10° WNW 22:58:56 33° W 22:58:56 33° W visible
13 Aug 3.8 21:11:14 10° WNW 21:15:23 69° NNE 21:17:37 26° E visible
13 Aug 5.1 22:50:56 10° WNW 22:53:14 28° W 22:53:14 28° W visible
14 Aug 3.7 21:05:45 10° WNW 21:09:55 77° NNE 21:11:58 29° E visible
14 Aug 5.3 22:45:32 10° WNW 22:47:35 24° W 22:47:35 24° W visible
15 Aug 3.6 21:00:16 10° WNW 21:04:27 88° NNE 21:06:20 31° ESE visible
15 Aug 5.5 22:40:10 10° W 22:41:57 20° W 22:41:57 20° W visible
16 Aug 3.5 20:54:47 10° WNW 20:58:57 80° SSW 21:00:45 33° ESE visible
16 Aug 5.8 22:34:53 10° W 22:36:23 17° WSW 22:36:23 17° WSW visible
17 Aug 3.6 20:49:19 10° WNW 20:53:27 67° SSW 20:55:13 32° SE visible
17 Aug 6.0 22:29:43 10° W 22:30:51 14° WSW 22:30:51 14° WSW visible
18 Aug 3.9 20:43:51 10° WNW 20:47:55 55° SSW 20:49:42 30° SSE visible
18 Aug 6.2 22:24:48 10° WSW 22:25:20 11° WSW 22:25:20 11° WSW visible
19 Aug 4.2 20:38:24 10° WNW 20:42:22 44° SW 20:44:15 26° SSE visible
20 Aug 4.6 20:32:59 10° WNW 20:36:47 36° SW 20:38:50 22° SSE visible
